Regional Weather Roundup
Issued by NWS

Home | Current Version | Previous Version | Graphics & Text | Print | Product List | Glossary On
Versions: 1 2 3 4 5 6 7 8 9 10 11 12 13 14 15 16 17 18 19 20 21 22 23 24 25 26 27 28 29 30 31 32 33 34 35 36 37 38 39 40 41 42 43 44 45 46 47 48 49 50
000
ASUS43 KDTX 191510
RWRMI
MICHIGAN HOURLY REGIONAL WEATHER ROUNDUP
NATIONAL WEATHER SERVICE DETROIT/PONTIAC MI
1000 AM EST FRI DEC 19 2014

NOTE: "FAIR" INDICATES FEW OR NO CLOUDS BELOW 12,000 FEET WITH NO
SIGNIFICANT WEATHER AND/OR OBSTRUCTION TO VISIBILITY.

MIZ047>049-052>055-059>063-066>070-074>076-081>083-191600-
SOUTHEAST LOWER MICHIGAN

CITY           SKY/WX    TMP DP  RH WIND       PRES   REMARKS
ADRIAN         CLOUDY    28  25  88 E7        30.26F
ALMA           CLOUDY    23  19  83 CALM      30.30S
ANN ARBOR      CLOUDY    28  23  81 N7        30.27R
BAD AXE        MOSUNNY   24  22  93 CALM      30.27S
DETROIT CITY   CLOUDY    29  18  63 N6        30.29R
DETROIT        CLOUDY    28  21  75 N8        30.28S
FLINT          CLOUDY    27  18  69 N5        30.29R
GROSSE ILE     CLOUDY    28  21  74 N6        30.27S
HILLSDALE      CLOUDY    29  27  94 N3        30.23S
HOWELL         CLOUDY    25  21  86 N3        30.26S

CITY           SKY/WX    TMP DP  RH WIND       PRES   REMARKS
JACKSON        CLOUDY    27  24  89 NE5       30.25S
LAMBERTVILLE   CLOUDY    30  27  86 NE5       30.27S
LANSING        CLOUDY    26  19  74 N6        30.28S
LAPEER         NOT AVBL
MASON          CLOUDY    26  23  88 CALM      30.26S
MONROE         CLOUDY    28  25  86 CALM      30.26S
MT. CLEMENS    CLOUDY    27  21  80 N7        30.26R
PONTIAC        CLOUDY    24  19  81 NW5       30.26R
PORT HOPE        N/A     30  23  75 N5        30.25R
PORT HURON     CLOUDY    27  21  80 NW9       30.27S
TRI CITIES     SUNNY     25  18  74 NW6       30.30R
YPSILANTI      CLOUDY    30  21  69 N6        30.28R
$$
MIZ043>046-050>051-056>058-064>065-071>073-077>080-191600-
SOUTHWEST LOWER MICHIGAN

CITY           SKY/WX    TMP DP  RH WIND       PRES   REMARKS
BATTLE CREEK   CLOUDY    29  22  75 NE6       30.26R
BENTON HARBOR  CLOUDY    28  22  78 CALM      30.28R
BIG RAPIDS     CLOUDY    20  20  97 N3        30.28R
COLDWATER      CLOUDY    28  26  91 CALM      30.25R FOG
HOLLAND        SUNNY     28  21  75 NE3       30.29R
GRAND RAPIDS   PTSUNNY   27  19  72 NE6       30.28R
KALAMAZOO      SUNNY     29  23  78 N5        30.26S
MARSHALL       CLOUDY    27  25  89 CALM      30.25S
MUSKEGON       MOSUNNY   25  19  78 NE6       30.30R
$$
MIZ016>042-191600-
NORTHERN LOWER MICHIGAN

CITY           SKY/WX    TMP DP  RH WIND       PRES   REMARKS
ALPENA         CLOUDY    20  17  88 CALM      30.28S
BEAVER ISLAND  SUNNY     14  12  93 CALM      30.29S
BELLAIRE       MOSUNNY   11   8  89 CALM      30.31R
CADILLAC       SUNNY     14  11  88 CALM      30.24R
CHARLEVOIX     SUNNY     16  14  91 SE3       30.32S
FRANKFORT      CLOUDY    22  20  93 CALM      30.30R
GAYLORD        SUNNY      9   6  88 CALM      30.24R
GRAYLING       SUNNY     13  11  90 CALM      30.26S
HARBOR SPRINGS MOSUNNY   12   9  88 E3        30.28S
HOUGHTON LAKE  MOSUNNY   14  11  87 W5        30.26S
MANISTEE       CLOUDY    18  12  79 E3        30.31R
OSCODA         SUNNY     21  18  87 NW6       30.27S
PELLSTON       MOSUNNY    7   3  84 CALM      30.29S
TRAVERSE CITY  MOSUNNY   19  15  84 CALM      30.29R
$$
MIZ007>008-015-191600-
EASTERN UPPER MICHIGAN

CITY           SKY/WX    TMP DP  RH WIND       PRES   REMARKS
KINROSS        MOSUNNY   18  16  93 N3        30.29S
MACKINAC ISLAN MOSUNNY   20  15  80 NE7       30.28S
NEWBERRY       MOSUNNY    9   8  95 CALM      30.28S
S. S. MARIE    MOSUNNY   13  10  88 CALM      30.28R
$$
MIZ004>006-011>014-085-191600-
CENTRAL UPPER MICHIGAN

CITY           SKY/WX    TMP DP  RH WIND       PRES   REMARKS
MANISTIQUE     CLOUDY    19  18  96 CALM      30.30R
ESCANABA       CLOUDY    16  12  86 CALM      30.30R
MENOMINEE      SUNNY     18  12  79 CALM      30.31R
SAWYER-GWINN   CLOUDY    23  19  86 CALM      30.26R
$$
MIZ001>003-009>011-084-191600-
WESTERN UPPER MICHIGAN

CITY           SKY/WX    TMP DP  RH WIND       PRES   REMARKS
IRON MOUNTAIN  PTSUNNY    9   6  88 CALM      30.28R
HOUGHTON       CLOUDY    20  17  88 W3        30.27R
COPPER HARBOR    N/A     27  21  78 W3        30.29S
IRONWOOD       CLOUDY    16  16 100 CALM      30.23S
$$

ABBREVIATIONS USED IN REMARKS
   TC - TEMPERATURE IN CELSIUS
  WCI - WIND CHILL INDEX
   HX - HEAT INDEX
  VSB - VISIBILITY



USA.gov is the U.S. government's official web portal to all federal, state and local government web resources and services.